Weather observations for the past three days for
Billings, Billings Logan International Airport
Imperial (Metric)
Date Time (mdt) Wind (mph) Vis. (mi.) Weather Sky Cond. Temperature (ºF) Relative Humidity Wind Chill (°F) Heat Index (°F) Pressure Precipitation (in)
Air Dwpt 6 hour altimeter (in) sea level (mb) 1 hr 3 hr 6 hr
Max. Min.
24 00:53 Calm 10.00 Fair CLR 73 51.1 46% 29.78 1004.0
23 23:53 NW 8 10.00 A Few Clouds FEW140 73 52 98.1 71.1 48% 29.77 1003.9 0.13
23 22:53 NW 12 G 20 10.00 Partly Cloudy FEW100 SCT150 75 55 50% 78 29.75 1003.5
23 21:53 NE 8 10.00 Thunderstorm FEW045 SCT120CB BKN180 73.9 55 52% 29.73 1003.1 0.04
23 20:52 W 9 G 26 8.00 Thunderstorm Heavy Rain Hail FEW024 BKN055CB BKN110 80.1 51.1 37% 80 29.72 1002.6 0.09 0.09
23 19:53 NE 7 10.00 Partly Cloudy FEW080 FEW180 SCT250 87.1 48 26% 84 29.7 1002.1
23 18:53 E 6 10.00 Thunderstorm FEW080CB SCT150 BKN220 93.9 46.9 20% 90 29.7 1001.6
23 17:53 Vrbl 5 10.00 A Few Clouds FEW100 FEW180 97 46 98.1 81 17% 93 29.71 1001.8
23 16:53 N 3 10.00 A Few Clouds FEW100 FEW180 97 46.9 18% 93 29.73 1002.4
23 15:53 Calm 10.00 A Few Clouds FEW095 FEW220 95 48 20% 91 29.75 1003.2
23 14:53 E 5 10.00 A Few Clouds FEW090 FEW220 95 53.1 24% 93 29.77 1003.8
23 13:53 SE 7 10.00 A Few Clouds FEW080 FEW200 91.9 57 31% 91 29.8 1004.7
23 12:53 E 6 10.00 A Few Clouds FEW200 87.1 57 36% 86 29.82 1005.8
23 11:53 Vrbl 6 10.00 Fair CLR 82 55.9 82 59 41% 82 29.85 1007.0
23 10:53 Vrbl 5 10.00 A Few Clouds FEW150 75.9 55 48% 78 29.87 1008.0
23 09:53 SW 6 10.00 A Few Clouds FEW180 72 55 55% 29.89 1008.8
23 08:53 SW 9 10.00 Fair CLR 66.9 54 63% 29.9 1009.4
23 07:53 SW 8 10.00 A Few Clouds FEW130 63 53.1 70% 29.91 1009.7
23 06:53 SW 8 10.00 A Few Clouds FEW110 60.1 52 75% 29.92 1010.0
23 05:53 SW 6 10.00 A Few Clouds FEW110 59 53.1 66.9 59 81% 29.93 1010.2
23 04:53 SW 6 10.00 A Few Clouds FEW080 61 52 72% 29.93 1010.0
23 03:53 Calm 10.00 A Few Clouds FEW080 61 51.1 70% 29.92 1009.8
23 02:53 N 5 10.00 Fair CLR 63 52 68% 29.93 1010.1
23 01:53 NE 6 10.00 Fair CLR 64.9 52 63% 29.95 1010.6
23 00:53 N 8 10.00 Fair CLR 66 52 61% 29.95 1011.0
22 23:53 N 9 10.00 Fair CLR 66.9 52 86 66.9 59% 29.96 1011.5
22 22:53 NE 10 10.00 A Few Clouds FEW090 69.1 52 55% 29.97 1011.7
22 21:53 NE 10 10.00 A Few Clouds FEW090 FEW200 72 54 53% 29.97 1011.9
22 20:53 NE 12 10.00 A Few Clouds FEW090 FEW200 75.9 55.9 50% 78 29.95 1011.1
22 19:53 NE 18 G 23 10.00 A Few Clouds FEW050 FEW200 80.1 54 41% 80 29.93 1010.4
22 18:53 E 7 10.00 A Few Clouds FEW040 FEW200 84.9 48.9 29% 83 29.93 1010.0
22 17:53 Calm 10.00 A Few Clouds FEW050 FEW090 FEW200 84.9 48.9 88 75 29% 83 29.94 1010.4
22 16:53 SE 7 10.00 Partly Cloudy SCT050 SCT090 SCT200 87.1 50 28% 84 29.95 1010.6
22 15:53 SW 9 10.00 Partly Cloudy SCT050 SCT080 SCT200 84.9 50 30% 83 29.96 1011.1
22 14:53 S 7 10.00 Partly Cloudy SCT050 SCT200 84 50 31% 82 29.96 1011.4
22 13:53 S 7 10.00 A Few Clouds FEW050 FEW200 82 52 35% 81 29.99 1012.3
22 12:53 Calm 10.00 A Few Clouds FEW050 FEW200 79 53.1 41% 79 29.99 1012.7
22 11:53 Calm 10.00 A Few Clouds FEW065 FEW200 75 55 75 57 50% 78 30.01 1012.9
22 10:53 Calm 10.00 A Few Clouds FEW065 FEW200 73 55 53% 30.02 1013.5
22 09:53 SW 6 10.00 A Few Clouds FEW065 FEW200 68 55 63% 30.03 1014.1
22 08:53 SW 7 10.00 A Few Clouds FEW065 FEW180 64.9 52 63% 30.04 1014.6
22 07:53 S 3 10.00 A Few Clouds FEW065 FEW180 63 51.1 65% 30.04 1014.6
22 06:53 Calm 10.00 Partly Cloudy FEW050 SCT090 SCT150 60.1 51.1 72% 30.04 1014.8
22 05:53 Calm 10.00 Mostly Cloudy FEW031 SCT047 BKN150 57 50 66 55.9 78% 30.03 1014.8
22 04:53 S 5 10.00 Mostly Cloudy BKN050 BKN140 59 50 72% 30.03 1014.6
22 03:53 S 5 10.00 Mostly Cloudy FEW018 SCT028 BKN060 57.9 52 81% 30.03 1014.5
22 02:53 NE 7 10.00 Partly Cloudy SCT026 SCT150 57 50 78% 30.03 1014.9
22 01:53 Calm 10.00 A Few Clouds FEW060 59 50 72% 30.01 1013.9
22 00:53 N 8 10.00 Partly Cloudy SCT035 SCT050 61 50 67% 30.01 1013.7
21 23:53 N 10 10.00 Overcast BKN035 OVC050 66 55 73 64.9 68% 30.02 1014.0
21 22:53 N 6 10.00 Mostly Cloudy BKN033 66 55.9 70% 30.01 1013.8
21 21:53 NE 6 10.00 Mostly Cloudy FEW060 FEW140 BKN220 66.9 57 71% 30.01 1013.6
21 20:53 E 8 10.00 Mostly Cloudy FEW060 FEW140 BKN220 70 55.9 61% 29.99 1012.9
21 19:53 NE 7 10.00 Mostly Cloudy FEW040 SCT060 BKN220 72 55 55% 29.98 1012.7
21 18:53 E 9 10.00 Mostly Cloudy SCT040 BKN060 BKN220 72 55 55% 29.99 1013.1
21 17:53 NE 12 10.00 Mostly Cloudy SCT040 BKN060 73 55 75 69.1 53% 30 1013.6
21 16:53 NE 14 10.00 Mostly Cloudy BKN035 BKN060 73 55.9 55% 30 1013.6
21 15:53 NE 10 G 18 10.00 Mostly Cloudy BKN043 BKN050 73 55.9 55% 30.01 1013.6
21 14:53 NE 13 10.00 Mostly Cloudy BKN032 BKN045 73 55.9 55% 30.01 1013.6
21 13:53 E 9 10.00 Mostly Cloudy SCT032 BKN045 73 55.9 55% 30.03 1014.4
21 12:53 NE 14 G 23 10.00 Overcast SCT026 OVC037 70 55.9 61% 30.05 1015.4
21 11:53 NE 12 10.00 Overcast FEW019 OVC035 69.1 55.9 69.1 55.9 63% 30.06 1015.6
21 10:53 E 10 10.00 Mostly Cloudy BKN019 66 57 73% 30.07 1016.2
21 09:53 E 5 10.00 Mostly Cloudy BKN013 BKN090 64.9 55.9 73% 30.06 1015.9
21 08:53 NE 9 10.00 Mostly Cloudy SCT008 BKN090 62.1 55.9 80% 30.07 1015.7
21 07:53 NE 12 10.00 Mostly Cloudy BKN008 BKN090 59 55 87% 30.08 1015.9
21 06:53 N 5 10.00 Overcast BKN007 OVC013 57.9 54 87% 30.09 1016.4
21 05:53 NW 10 10.00 Light Rain FEW007 SCT049 BKN100 BKN180 55.9 54 59 55.9 93% 30.07 1015.9
21 04:53 N 10 10.00 Mostly Cloudy SCT080 BKN100 BKN140 57 55 93% 30.08 1016.1
21 03:53 NE 7 10.00 Light Rain FEW018 SCT090 OVC110 57.9 55 90% 30.09 1016.5
21 02:53 N 8 10.00 Overcast FEW018 OVC150 57.9 54 87% 30.1 1016.9
21 01:53 N 6 10.00 Mostly Cloudy SCT160 BKN210 57.9 54 87% 30.11 1017.2
Date Time (mdt) Wind (mph) Vis. (mi.) Weather Sky Cond. Air Dwpt Max. Min. Relative Humidity Wind Chill (°F) Heat Index (°F) altimeter (in) sea level (mb) 1 hr 3 hr 6 hr
6 hour
Temperature (ºF) Pressure Precipitation (in)